SES-1

Last updated on Wed Sep 17 2025 00:02:47 GMT+0000 (Coordinated Universal Time)

1 36516U 10016A 25259.56371192 -.00000134 00000+0 00000+0 0 9993 2 36516 0.0451 295.4626 0002470 243.2051 279.0192 1.00271483 56295
UTC large
Height (km)
Speed (km/s)
/
Latitude / Longitude
Inclination (degrees)
Orbital Period (minutes)
Azimuth
Elevation
Range (km)
Doppler Factor

Next 0 passes for location: London (51.5072 / 0.1276)

Sorry there are no passes over London.